K7SKM Weather Reports


Display with metric or nautical units.
time (UTC)temp
F
wind
direction
speed
MPH
gust
MPH
rain 1hr
in
rain 24hr
in
rain mn
in
humidity
%
barometer
mb
20260902125405 57 165 0.0 0.0 0.00 0.00 0.00 86 1012.7
20260902124900 57 138 0.0 0.0 0.00 0.00 0.00 86 1012.6
20260902124356 57 155 0.0 0.0 0.00 0.00 0.00 86 1012.7
20260902123851 57 137 0.0 0.0 0.00 0.00 0.00 86 1012.5
20260902123347 57 181 0.0 0.0 0.00 0.00 0.00 86 1012.6
20260902122846 57 163 0.0 0.0 0.00 0.00 0.00 85 1012.6
20260902122342 57 197 0.0 0.0 0.00 0.00 0.00 85 1012.7
20260902121841 58 198 0.0 0.0 0.00 0.00 0.00 85 1012.5
20260902121337 58 189 0.0 0.0 0.00 0.00 0.00 85 1012.7
20260902120832 58 132 0.0 0.0 0.00 0.00 0.00 85 1012.8
20260902120328 58 155 0.0 0.0 0.00 0.00 0.00 85 1012.9
20260902115823 58 131 0.0 0.0 0.00 0.00 0.00 85 1012.9
20260902115319 58 135 0.0 0.0 0.00 0.00 0.00 85 1013.0
20260902114815 58 192 0.0 0.0 0.00 0.00 0.00 85 1013.0
20260902114311 58 164 0.0 0.0 0.00 0.00 0.00 85 1012.9
20260902113805 58 170 0.0 0.0 0.00 0.00 0.00 84 1013.0
20260902113301 58 143 0.0 0.0 0.00 0.00 0.00 84 1013.1
20260902112801 58 153 0.0 0.0 0.00 0.00 0.00 84 1013.1
20260902112257 59 176 0.0 0.0 0.00 0.00 0.00 83 1013.0
20260902111752 59 147 0.0 0.0 0.00 0.00 0.00 83 1013.2
20260902111248 59 141 0.0 0.0 0.00 0.00 0.00 83 1013.3
20260902110744 59 154 0.0 0.0 0.00 0.00 0.00 82 1013.1
20260902110240 59 144 0.0 0.0 0.00 0.00 0.00 82 1013.2
20260902105739 59 137 0.0 0.0 0.00 0.00 0.00 82 1013.3
20260902105235 59 188 0.0 0.0 0.00 0.00 0.00 82 1013.3
20260902104730 59 125 0.0 0.0 0.00 0.00 0.00 82 1013.4
20260902104226 59 166 0.0 0.0 0.00 0.00 0.00 82 1013.5
20260902103725 59 158 0.0 0.0 0.00 0.00 0.00 82 1013.6
20260902103225 59 139 0.0 0.0 0.00 0.00 0.00 82 1013.5
20260902102721 59 151 0.0 0.0 0.00 0.00 0.00 82 1013.5
20260902102218 59 170 0.0 0.0 0.00 0.00 0.00 82 1013.7
20260902101714 59 134 0.0 0.0 0.00 0.00 0.00 83 1013.6
20260902101208 59 151 0.0 0.0 0.00 0.00 0.00 82 1013.7
20260902100708 60 134 0.0 0.0 0.00 0.00 0.00 82 1013.6
20260902100203 60 141 0.0 0.0 0.00 0.00 0.00 82 1013.9
20260902095702 60 153 0.0 0.0 0.00 0.00 0.00 82 1013.7
20260902095156 60 143 0.0 0.0 0.00 0.00 0.00 82 1013.8
20260902094651 60 129 0.0 0.0 0.00 0.00 0.00 82 1013.7
20260902094148 60 139 0.0 5.0 0.00 0.00 0.00 82 1013.5
20260902093646 60 141 0.0 0.0 0.00 0.00 0.00 81 1013.8
20260902093142 60 163 0.0 0.0 0.00 0.00 0.00 81 1013.6
20260902092637 60 177 0.0 0.0 0.00 0.00 0.00 81 1013.7
20260902092131 60 152 0.0 0.0 0.00 0.00 0.00 81 1013.8
20260902091626 60 185 0.0 0.0 0.00 0.00 0.00 80 1013.9
20260902091123 60 181 0.0 0.0 0.00 0.00 0.00 80 1013.9
20260902090619 60 181 0.0 0.0 0.00 0.00 0.00 80 1013.8
20260902090117 60 191 0.0 0.0 0.00 0.00 0.00 80 1013.7
20260902085612 60 176 0.0 0.0 0.00 0.00 0.00 80 1013.9
20260902085107 61 190 0.0 0.0 0.00 0.00 0.00 80 1014.1
20260902084603 61 174 0.0 0.0 0.00 0.00 0.00 80 1014.0
20260902084059 61 179 0.0 0.0 0.00 0.00 0.00 80 1014.2
20260902083554 61 193 0.0 0.0 0.00 0.00 0.00 80 1014.1
20260902083053 61 203 0.0 0.0 0.00 0.00 0.00 80 1014.3
20260902082549 61 197 0.0 0.0 0.00 0.00 0.00 80 1014.2
20260902082046 61 132 0.0 0.0 0.00 0.00 0.00 80 1014.2
20260902081542 61 152 0.0 0.0 0.00 0.00 0.00 80 1014.2
20260902081042 61 143 0.0 0.0 0.00 0.00 0.00 80 1014.5
20260902080537 61 161 0.0 0.0 0.00 0.00 0.00 79 1014.1
20260902080033 61 144 0.0 0.0 0.00 0.00 0.00 79 1014.2
20260902075533 61 140 0.0 0.0 0.00 0.00 0.00 79 1014.3
20260902075029 61 135 0.0 0.0 0.00 0.00 0.00 79 1014.4
20260902074525 61 152 0.0 0.0 0.00 0.00 0.00 79 1014.4
20260902074019 61 129 0.0 0.0 0.00 0.00 0.00 78 1014.5
20260902073515 61 148 0.0 0.0 0.00 0.00 0.00 78 1014.5
20260902073012 61 163 0.0 0.0 0.00 0.00 0.00 78 1014.5
20260902072507 62 136 0.0 0.0 0.00 0.00 0.00 78 1014.5
20260902072003 62 152 0.0 0.0 0.00 0.00 0.00 78 1014.4
20260902071502 62 154 0.0 3.0 0.00 0.00 0.00 78 1014.6
20260902070959 62 119 0.0 3.0 0.00 0.00 0.00 78 1014.6
20260902070454 62 182 0.0 0.0 0.00 0.00 0.00 78 1014.7
20260902065953 62 160 0.0 0.0 0.00 0.00 0.00 78 1014.5
20260902065448 62 168 0.0 0.0 0.00 0.00 0.00 78 1014.7
20260902064943 62 156 0.0 0.0 0.00 0.00 0.00 78 1014.7
20260902064439 62 140 2.0 3.0 0.00 0.00 0.00 78 1014.7
20260902063934 62 164 0.0 3.0 0.00 0.00 0.00 77 1014.7
20260902063434 62 138 0.0 0.0 0.00 0.00 0.00 77 1014.6
20260902062929 62 167 0.0 0.0 0.00 0.00 0.00 77 1014.6
20260902062428 62 155 0.0 0.0 0.00 0.00 0.00 77 1014.7
20260902061923 62 138 2.0 3.0 0.00 0.00 0.00 76 1014.7
20260902061418 63 159 0.0 0.0 0.00 0.00 0.00 75 1014.7
20260902060914 63 189 0.0 0.0 0.00 0.00 0.00 75 1014.9
20260902060410 63 124 0.0 0.0 0.00 0.00 0.00 74 1014.7
20260902055906 63 176 0.0 3.0 0.00 0.00 0.00 74 1014.9
20260902055402 62 203 0.0 0.0 0.00 0.00 0.00 75 1014.6
20260902054857 62 149 0.0 0.0 0.00 0.00 0.00 76 1014.8
20260902054352 63 152 0.0 0.0 0.00 0.00 0.00 75 1014.7
20260902053848 63 205 0.0 0.0 0.00 0.00 0.00 74 1014.8
20260902053343 63 177 0.0 0.0 0.00 0.00 0.00 74 1014.8
20260902052841 63 188 0.0 0.0 0.00 0.00 0.00 74 1014.8
20260902052337 63 234 0.0 0.0 0.00 0.00 0.00 74 1014.9
20260902051832 63 124 0.0 0.0 0.00 0.00 0.00 74 1014.8
20260902051331 63 157 0.0 0.0 0.00 0.00 0.00 74 1014.9
20260902050826 63 135 1.0 3.0 0.00 0.00 0.00 75 1015.0
20260902050325 63 137 0.0 3.0 0.00 0.00 0.00 75 1015.1
20260902045820 63 154 0.0 0.0 0.00 0.00 0.00 75 1015.1
20260902045316 63 154 0.0 3.0 0.00 0.00 0.00 75 1015.0
20260902044813 63 141 1.0 3.0 0.00 0.00 0.00 74 1015.0
20260902044308 63 164 0.0 0.0 0.00 0.00 0.00 74 1015.0
20260902043802 63 155 0.0 0.0 0.00 0.00 0.00 73 1015.1
20260902043258 64 160 0.0 0.0 0.00 0.00 0.00 73 1015.1
20260902042757 64 185 0.0 0.0 0.00 0.00 0.00 72 1015.0
20260902042252 64 160 0.0 0.0 0.00 0.00 0.00 72 1015.0
20260902041748 64 158 0.0 0.0 0.00 0.00 0.00 72 1014.9
20260902041247 64 217 0.0 3.0 0.00 0.00 0.00 73 1015.1
20260902040746 64 163 0.0 0.0 0.00 0.00 0.00 73 1015.2
20260902040242 64 178 0.0 0.0 0.00 0.00 0.00 73 1015.2
20260902035740 64 148 0.0 5.0 0.00 0.00 0.00 73 1015.1
20260902035236 64 195 0.0 0.0 0.00 0.00 0.00 73 1015.0
20260902034735 64 203 0.0 3.0 0.00 0.00 0.00 73 1015.1
20260902034230 64 172 0.0 0.0 0.00 0.00 0.00 73 1015.2
20260902033728 64 151 0.0 0.0 0.00 0.00 0.00 73 1015.2
20260902033224 64 210 0.0 0.0 0.00 0.00 0.00 73 1015.0
20260902032722 64 180 0.0 5.0 0.00 0.00 0.00 73 1015.2
20260902032218 64 234 0.0 0.0 0.00 0.00 0.00 73 1015.3
20260902031717 64 166 0.0 0.0 0.00 0.00 0.00 73 1015.2
20260902031213 64 142 0.0 0.0 0.00 0.00 0.00 74 1015.1
20260902030708 64 191 0.0 0.0 0.00 0.00 0.00 73 1015.0
20260902030207 64 137 0.0 3.0 0.00 0.00 0.00 73 1015.1
20260902025702 64 153 0.0 0.0 0.00 0.00 0.00 73 1014.9
20260902025157 64 211 0.0 3.0 0.00 0.00 0.00 72 1014.8
20260902024652 64 212 0.0 0.0 0.00 0.00 0.00 71 1014.9
20260902024147 64 169 0.0 5.0 0.00 0.00 0.00 71 1014.7
20260902023643 65 225 0.0 7.0 0.00 0.00 0.00 70 1014.7
20260902023138 65 269 1.0 7.0 0.00 0.00 0.00 68 1014.7
20260902022637 66 187 0.0 0.0 0.00 0.00 0.00 67 1014.8
20260902022133 66 199 0.0 5.0 0.00 0.00 0.00 66 1014.7
20260902021628 67 207 0.0 3.0 0.00 0.00 0.00 64 1014.7
20260902021123 67 181 0.0 3.0 0.00 0.00 0.00 64 1014.6
20260902020619 67 112 4.0 7.0 0.00 0.00 0.00 63 1014.7
20260902020114 67 192 0.0 3.0 0.00 0.00 0.00 64 1014.6
20260902015610 67 222 0.0 3.0 0.00 0.00 0.00 64 1014.7
20260902015106 67 139 4.0 7.0 0.00 0.00 0.00 63 1014.6
20260902014602 67 216 0.0 0.0 0.00 0.00 0.00 63 1014.7
20260902014057 67 232 0.0 3.0 0.00 0.00 0.00 64 1014.7
20260902013556 67 176 0.0 3.0 0.00 0.00 0.00 64 1014.8
20260902013052 67 184 0.0 0.0 0.00 0.00 0.00 64 1014.5
20260902012547 67 104 0.0 5.0 0.00 0.00 0.00 64 1014.6
20260902012043 67 160 0.0 0.0 0.00 0.00 0.00 65 1014.6
20260902011538 67 186 0.0 0.0 0.00 0.00 0.00 65 1014.6
20260902011037 67 208 0.0 0.0 0.00 0.00 0.00 66 1014.7
20260902010537 67 211 1.0 7.0 0.00 0.00 0.00 65 1014.6
20260902010033 67 208 0.0 0.0 0.00 0.00 0.00 65 1014.6
20260902005531 67 219 0.0 3.0 0.00 0.00 0.00 65 1014.6
20260902005027 67 275 3.0 5.0 0.00 0.00 0.00 65 1014.5
20260902004526 68 221 0.0 0.0 0.00 0.00 0.00 64 1014.7
20260902004022 68 208 0.0 0.0 0.00 0.00 0.00 64 1014.7
20260902003517 68 193 0.0 0.0 0.00 0.00 0.00 64 1014.4
20260902003012 67 257 0.0 5.0 0.00 0.00 0.00 64 1014.6
20260902002508 68 221 0.0 0.0 0.00 0.00 0.00 63 1014.7
20260902002002 68 283 3.0 5.0 0.00 0.00 0.00 63 1014.6
20260902001456 68 200 0.0 3.0 0.00 0.00 0.00 64 1014.7
20260902000952 67 180 0.0 5.0 0.00 0.00 0.00 65 1014.8
20260902000447 67 149 0.0 5.0 0.00 0.00 0.00 66 1014.6
20260901235942 67 234 0.0 5.0 0.00 0.00 0.00 66 1014.8
20260901235437 68 211 1.0 5.0 0.00 0.00 0.00 65 1014.6
20260901234932 68 232 0.0 3.0 0.00 0.00 0.00 65 1014.6
20260901234426 68 219 0.0 5.0 0.00 0.00 0.00 64 1014.5
20260901233921 68 149 2.0 3.0 0.00 0.00 0.00 64 1014.6
20260901233416 67 139 1.0 5.0 0.00 0.00 0.00 64 1014.7
20260901232912 68 202 0.0 3.0 0.00 0.00 0.00 65 1014.7
20260901232407 67 150 0.0 3.0 0.00 0.00 0.00 65 1014.8
20260901231902 67 200 0.0 0.0 0.00 0.00 0.00 66 1014.7
20260901231358 67 209 0.0 0.0 0.00 0.00 0.00 66 1014.5
20260901230855 67 224 0.0 0.0 0.00 0.00 0.00 66 1014.7
20260901230354 67 259 2.0 5.0 0.00 0.00 0.00 66 1014.6
20260901225850 67 207 0.0 0.0 0.00 0.00 0.00 67 1014.9
20260901225349 66 214 0.0 0.0 0.00 0.00 0.00 67 1014.7
20260901224844 66 223 0.0 3.0 0.00 0.00 0.00 68 1014.9
20260901224340 66 277 1.0 5.0 0.00 0.00 0.00 68 1014.7
20260901223836 66 275 3.0 10.0 0.00 0.00 0.00 69 1014.9
20260901223332 66 291 3.0 5.0 0.00 0.00 0.00 68 1014.9
20260901222827 66 217 0.0 0.0 0.00 0.00 0.00 68 1014.9
20260901222324 66 259 0.0 7.0 0.00 0.00 0.00 68 1014.7
20260901221819 66 285 3.0 5.0 0.00 0.00 0.00 67 1014.6
20260901221314 66 215 0.0 0.0 0.00 0.00 0.00 68 1014.6
20260901220808 66 273 0.0 3.0 0.00 0.00 0.00 68 1014.8
20260901220302 66 289 2.0 5.0 0.00 0.00 0.00 68 1014.8
20260901215801 66 294 4.0 7.0 0.00 0.00 0.00 68 1014.6
20260901215300 66 273 3.0 7.0 0.00 0.00 0.00 67 1014.7
20260901214759 67 240 0.0 0.0 0.00 0.00 0.00 67 1014.7
20260901214258 66 277 0.0 5.0 0.00 0.00 0.00 67 1014.6
20260901213753 66 252 0.0 7.0 0.00 0.00 0.00 67 1014.6
20260901213252 66 313 3.0 10.0 0.00 0.00 0.00 67 1014.6
20260901212746 67 270 2.0 7.0 0.00 0.00 0.00 66 1014.6
20260901212243 67 290 5.0 7.0 0.00 0.00 0.00 65 1014.8
20260901211737 68 274 0.0 5.0 0.00 0.00 0.00 65 1014.7
20260901211234 68 254 3.0 7.0 0.00 0.00 0.00 64 1014.5
20260901210730 68 226 1.0 3.0 0.00 0.00 0.00 63 1014.7
20260901210225 68 194 2.0 5.0 0.00 0.00 0.00 63 1014.7
20260901205721 68 286 3.0 7.0 0.00 0.00 0.00 62 1014.7
20260901205221 69 252 0.0 0.0 0.00 0.00 0.00 62 1014.7
20260901204716 69 142 3.0 7.0 0.00 0.00 0.00 61 1014.8
20260901204212 69 213 0.0 3.0 0.00 0.00 0.00 61 1014.8
20260901203707 69 214 0.0 0.0 0.00 0.00 0.00 62 1014.9
20260901203201 69 250 0.0 0.0 0.00 0.00 0.00 62 1014.9
20260901202701 68 203 0.0 7.0 0.00 0.00 0.00 62 1015.0
20260901202156 69 307 0.0 0.0 0.00 0.00 0.00 63 1014.9
20260901201652 68 158 0.0 0.0 0.00 0.00 0.00 64 1014.7
20260901201152 68 203 0.0 3.0 0.00 0.00 0.00 64 1014.6
20260901200651 68 207 0.0 0.0 0.00 0.00 0.00 65 1014.8
20260901200146 67 270 0.0 5.0 0.00 0.00 0.00 66 1014.8
20260901195643 67 180 0.0 3.0 0.00 0.00 0.00 67 1014.8
20260901195138 66 171 0.0 5.0 0.00 0.00 0.00 68 1015.1
20260901194634 66 162 2.0 3.0 0.00 0.00 0.00 69 1014.8
20260901194128 66 129 1.0 7.0 0.00 0.00 0.00 69 1014.9
20260901193619 66 150 2.0 5.0 0.00 0.00 0.00 69 1015.1
20260901193118 66 152 0.0 5.0 0.00 0.00 0.00 69 1015.1
20260901192614 66 131 4.0 5.0 0.00 0.00 0.00 69 1015.0
20260901192109 66 161 0.0 0.0 0.00 0.00 0.00 68 1015.1
20260901191605 66 108 1.0 5.0 0.00 0.00 0.00 68 1015.0
20260901191101 66 142 0.0 3.0 0.00 0.00 0.00 68 1015.2
20260901190556 66 230 2.0 5.0 0.00 0.00 0.00 68 1015.3
20260901190055 66 153 0.0 0.0 0.00 0.00 0.00 69 1015.3
20260901185554 65 136 0.0 0.0 0.00 0.00 0.00 70 1015.2
20260901185053 65 195 0.0 3.0 0.00 0.00 0.00 70 1015.3
20260901184549 65 193 0.0 0.0 0.00 0.00 0.00 71 1015.1
20260901184044 65 139 0.0 5.0 0.00 0.00 0.00 71 1015.4
20260901183544 65 154 0.0 0.0 0.00 0.00 0.00 71 1015.2
20260901183040 65 129 2.0 5.0 0.00 0.00 0.00 71 1015.0
20260901182536 65 159 1.0 5.0 0.00 0.00 0.00 71 1015.4
20260901182035 65 145 4.0 7.0 0.00 0.00 0.00 69 1015.2
20260901181534 66 200 0.0 3.0 0.00 0.00 0.00 68 1015.3
20260901181029 65 190 0.0 5.0 0.00 0.00 0.00 69 1015.0
20260901180527 65 135 3.0 7.0 0.00 0.00 0.00 69 1015.1
20260901180022 65 184 0.0 3.0 0.00 0.00 0.00 69 1015.2
20260901175516 65 191 0.0 5.0 0.00 0.00 0.00 68 1015.0
20260901175010 65 197 0.0 5.0 0.00 0.00 0.00 69 1015.0
20260901174507 65 140 0.0 3.0 0.00 0.00 0.00 69 1015.0
20260901174003 65 185 0.0 3.0 0.00 0.00 0.00 69 1014.7
20260901173457 64 140 0.0 5.0 0.00 0.00 0.00 70 1014.9
20260901172953 65 138 0.0 0.0 0.00 0.00 0.00 68 1014.9
20260901172448 66 184 0.0 0.0 0.00 0.00 0.00 67 1014.9
20260901171946 66 196 0.0 0.0 0.00 0.00 0.00 67 1015.1
20260901171445 66 237 0.0 0.0 0.00 0.00 0.00 68 1014.8
20260901170944 67 172 0.0 0.0 0.00 0.00 0.00 68 1014.7
20260901170439 65 211 0.0 0.0 0.00 0.00 0.00 69 1014.8
20260901165938 64 158 1.0 5.0 0.00 0.00 0.00 70 1014.9
20260901165433 64 196 0.0 0.0 0.00 0.00 0.00 71 1015.0
20260901164929 64 193 0.0 0.0 0.00 0.00 0.00 72 1015.0
20260901164424 64 201 0.0 0.0 0.00 0.00 0.00 72 1015.1
20260901163919 64 156 0.0 0.0 0.00 0.00 0.00 71 1015.0
20260901163414 64 164 0.0 0.0 0.00 0.00 0.00 72 1015.2
20260901162908 63 133 0.0 0.0 0.00 0.00 0.00 72 1015.3
20260901162408 63 156 0.0 0.0 0.00 0.00 0.00 74 1015.2
20260901161902 62 160 0.0 0.0 0.00 0.00 0.00 74 1015.3
20260901161401 62 148 0.0 0.0 0.00 0.00 0.00 76 1015.1
20260901160856 61 124 0.0 0.0 0.00 0.00 0.00 76 1015.2
20260901160353 61 137 0.0 0.0 0.00 0.00 0.00 77 1015.3
20260901155852 61 141 0.0 0.0 0.00 0.00 0.00 77 1015.3
20260901155346 60 145 0.0 0.0 0.00 0.00 0.00 78 1015.2
20260901154843 61 151 0.0 0.0 0.00 0.00 0.00 78 1015.3
20260901154342 60 181 0.0 0.0 0.00 0.00 0.00 79 1015.4
20260901153837 59 144 0.0 0.0 0.00 0.00 0.00 80 1015.3
20260901153332 59 153 0.0 0.0 0.00 0.00 0.00 81 1015.2
20260901152830 58 168 0.0 0.0 0.00 0.00 0.00 81 1015.2
20260901152330 58 129 0.0 0.0 0.00 0.00 0.00 82 1015.3
20260901151826 57 127 0.0 0.0 0.00 0.00 0.00 82 1015.4
20260901151320 57 130 0.0 0.0 0.00 0.00 0.00 83 1015.3
20260901150819 57 145 0.0 0.0 0.00 0.00 0.00 83 1015.5
20260901150317 56 112 0.0 0.0 0.00 0.00 0.00 84 1015.4
20260901145810 56 143 0.0 0.0 0.00 0.00 0.00 84 1015.2
20260901145309 56 124 0.0 0.0 0.00 0.00 0.00 85 1015.1
20260901144804 55 148 0.0 0.0 0.00 0.00 0.00 85 1015.4
20260901144301 55 138 0.0 5.0 0.00 0.00 0.00 85 1015.2
20260901143756 55 146 3.0 7.0 0.00 0.00 0.00 86 1015.4
20260901143252 55 139 0.0 0.0 0.00 0.00 0.00 86 1015.1
20260901142749 55 133 0.0 5.0 0.00 0.00 0.00 86 1015.2
20260901142247 55 156 0.0 0.0 0.00 0.00 0.00 87 1015.1
20260901141742 54 141 0.0 0.0 0.00 0.00 0.00 87 1015.2
20260901141237 54 120 0.0 3.0 0.00 0.00 0.00 87 1015.0
20260901140736 54 125 0.0 0.0 0.00 0.00 0.00 87 1014.9
20260901140234 54 153 0.0 0.0 0.00 0.00 0.00 87 1014.9
20260901135730 54 153 0.0 3.0 0.00 0.00 0.00 87 1014.7
20260901135230 54 130 0.0 0.0 0.00 0.00 0.00 88 1014.6
20260901134725 53 164 0.0 0.0 0.00 0.00 0.00 88 1014.7
20260901134220 53 162 0.0 0.0 0.00 0.00 0.00 88 1014.8
20260901133720 53 180 0.0 0.0 0.00 0.00 0.00 87 1014.6
20260901133219 53 184 0.0 0.0 0.00 0.00 0.00 87 1014.6
20260901132717 53 177 0.0 0.0 0.00 0.00 0.00 87 1014.8
20260901132212 54 171 0.0 0.0 0.00 0.00 0.00 87 1014.8
20260901131707 54 166 0.0 0.0 0.00 0.00 0.00 87 1014.9
20260901131206 54 175 0.0 0.0 0.00 0.00 0.00 86 1014.7
20260901130702 54 171 0.0 0.0 0.00 0.00 0.00 86 1014.8
20260901130200 54 156 0.0 0.0 0.00 0.00 0.00 86 1014.8